Location: Montreal
(45.5087°N, 73.5540°W)
Time: 17:34:34
(UTC-05:00)

OTV 5 (USA 277) - Visible Passes

Search period start: 21 January 2018 00:00
Search period end: 31 January 2018 00:00
Orbit: 404 x 417 km, 43.0° (Epoch: 07 September)

Date Brightness Start Highest point End Pass type
(mag) Time Alt. Az. Time Alt. Az. Time Alt. Az.
22 Jan ? 18:43:43 10° SSW 18:44:58 15° S 18:44:58 15° S visible
23 Jan ? 17:53:41 10° S 17:55:05 12° SSE 17:56:29 10° ESE visible
23 Jan ? 19:28:41 10° SW 19:29:15 14° SW 19:29:15 14° SW visible
24 Jan ? 18:37:52 10° SW 18:40:43 29° SSE 18:40:43 29° SSE visible
25 Jan ? 17:47:11 10° SSW 17:49:54 23° SSE 17:52:08 13° ESE visible
25 Jan ? 19:23:34 10° WSW 19:24:54 21° WSW 19:24:54 21° WSW visible
26 Jan ? 18:32:36 10° WSW 18:35:50 45° SSE 18:36:18 41° SE visible
27 Jan ? 17:41:41 10° SW 17:44:50 37° SSE 17:47:40 12° E visible
27 Jan ? 19:18:37 10° W 19:20:26 28° WSW 19:20:26 28° WSW visible
28 Jan ? 18:27:35 10° WSW 18:30:54 55° S 18:31:49 39° ESE visible
29 Jan ? 17:36:35 10° WSW 17:39:52 51° S 17:43:10 10° E visible
29 Jan ? 19:13:44 10° W 19:15:58 34° WSW 19:15:58 34° WSW visible
30 Jan ? 18:22:41 10° W 18:25:59 53° S 18:27:23 29° ESE visible
30 Jan ? 20:00:08 10° W 20:00:09 10° W 20:00:09 10° W visible
